De Kooy, Netherlands

9:18 AM CEST on June 23, 2017 (GMT +0200)
De Kooy Navy

Weather History for EHKD - January, 2014

Change the Weather History Date:

Monday, January 6, 2014

  Actual Average Record
Temperature  
Mean Temperature 48 °F -  
Max Temperature 55 °F 40 °F 55 °F (2014)
Min Temperature 40 °F 33 °F 17 °F (1997)
Degree Days  
Heating Degree Days 18    
Moisture  
Dew Point 46 °F    
Average Humidity 90    
Maximum Humidity 100    
Minimum Humidity 73    
Precipitation  
Precipitation 0.04 in 0.08 in - ()
Sea Level Pressure  
Sea Level Pressure 29.46 in    
Wind  
Wind Speed 24 mph ()    
Max Wind Speed 36 mph    
Max Gust Speed 47 mph    
Visibility 6.4 miles    
Events Rain    
Averages and records for this station are not official NWS values.
T = Trace of Precipitation, MM = Missing Value Source: Averaged Metar Reports

Daily Weather History Graph

Daily Weather History Graph

Search for Another Location

Airport or City:

Trip Planner

Search our weather history database for the weather conditions in past years. The results will help you decide how hot, cold, wet, or windy it might be!

Date:

Astronomy

Jan. 06, 2014 Rise Set
Actual Time 8:52 AM CET 4:41 PM CET
Civil Twilight 8:11 AM CET 5:22 PM CET
Nautical Twilight 7:26 AM CET 6:06 PM CET
Astronomical Twilight 6:45 AM CET 6:48 PM CET
Moon 11:08 AM CET (1/6) 11:53 PM CET (1/6)
Length of Visible Light 9h 11m
Length of Day
7h 48m
Waxing Crescent, 32% of the Moon is Illuminated
Jan 6
Waxing Crescent
Jan 8
First Quarter
Jan 16
Full
Jan 24
Last Quarter
Jan 30
New

Hourly Weather History & Observations

Time (CET) Temp. Windchill Dew Point Humidity Pressure Visibility Wind Dir Wind Speed Gust Speed Precip Events Conditions
12:00 AM 43 °F - 38 °F 77% 29.56 in 22 mi South 22.4 mph - -   Overcast
12:04 AM 42.8 °F 33.8 °F 39.2 °F 87% 29.56 in 6.2 mi South 21.9 mph - N/A   Overcast
12:08 AM 42.8 °F 33.8 °F 37.4 °F 81% 29.56 in 6.2 mi South 21.9 mph - N/A   Overcast
12:25 AM 42.8 °F 34.0 °F 39.2 °F 87% 29.53 in 6.2 mi South 20.7 mph - N/A   Overcast
12:55 AM 42.8 °F 33.3 °F 39.2 °F 87% 29.53 in 6.2 mi South 24.2 mph - N/A   Overcast
1:00 AM 43 °F - 40 °F 85% 29.53 in 4 mi South 24.6 mph - - Rain Rain Showers
1:00 AM 42.8 °F 33.3 °F 41.0 °F 93% 29.50 in 3.1 mi South 24.2 mph 38.0 mph N/A Rain Rain Showers
1:09 AM 42.8 °F 33.1 °F 41.0 °F 93% 29.50 in 3.1 mi South 25.3 mph 36.8 mph N/A Rain Light Rain Showers
1:13 AM 42.8 °F 33.1 °F 41.0 °F 93% 29.50 in 4.3 mi South 25.3 mph - N/A Rain Light Rain
1:25 AM 42.8 °F 33.3 °F 41.0 °F 93% 29.50 in 5.0 mi South 24.2 mph - N/A Rain Light Rain
1:36 AM 42.8 °F 33.5 °F 41.0 °F 93% 29.50 in 6.2 mi South 23.0 mph - N/A   Overcast
1:40 AM 42.8 °F 33.3 °F 41.0 °F 93% 29.50 in 6.2 mi South 24.2 mph - N/A   Overcast
1:44 AM 42.8 °F 33.3 °F 41.0 °F 93% 29.50 in 6.2 mi South 24.2 mph - N/A   Overcast
1:55 AM 42.8 °F 33.1 °F 41.0 °F 93% 29.50 in 6.2 mi South 25.3 mph - N/A   Overcast
2:00 AM 44 °F - 41 °F 86% 29.50 in 7 mi South 26.8 mph - - Rain Rain
2:06 AM 42.8 °F 32.9 °F 41.0 °F 93% 29.47 in 3.7 mi South 26.5 mph 39.1 mph N/A   Overcast
2:10 AM 42.8 °F 32.9 °F 41.0 °F 93% 29.47 in - South 26.5 mph - N/A   Mostly Cloudy
2:25 AM 42.8 °F 32.9 °F 41.0 °F 93% 29.47 in 6.2 mi South 26.5 mph - N/A   Mostly Cloudy
2:36 AM 42.8 °F 33.1 °F 42.8 °F 100% 29.47 in 3.1 mi South 25.3 mph - N/A   Overcast
2:41 AM 42.8 °F 33.3 °F 42.8 °F 100% 29.47 in - South 24.2 mph 35.7 mph N/A Rain Light Rain
2:55 AM 42.8 °F 33.8 °F 42.8 °F 100% 29.47 in 3.1 mi South 21.9 mph 34.5 mph N/A Rain Light Rain
2:57 AM 42.8 °F 33.5 °F 42.8 °F 100% 29.47 in 3.1 mi South 23.0 mph - N/A Rain Light Rain
3:00 AM 44 °F - 43 °F 93% 29.47 in 4 mi South 24.6 mph - - Rain Rain
3:03 AM 44.6 °F 35.7 °F 42.8 °F 93% 29.44 in 5.6 mi South 24.2 mph - N/A   Mostly Cloudy
3:14 AM 44.6 °F 35.9 °F 42.8 °F 93% 29.47 in 6.2 mi South 23.0 mph - N/A   Overcast
3:18 AM 44.6 °F 35.9 °F 42.8 °F 93% 29.47 in 6.2 mi South 23.0 mph - N/A   Overcast
3:25 AM 44.6 °F 35.3 °F 42.8 °F 93% 29.47 in 6.2 mi South 26.5 mph - N/A Rain Light Rain
3:28 AM 44.6 °F 35.5 °F 42.8 °F 93% 29.44 in 6.2 mi South 25.3 mph - N/A Rain Light Rain
3:44 AM 44.6 °F 35.9 °F 44.6 °F 100% 29.44 in 3.7 mi South 23.0 mph - N/A   Overcast
3:55 AM 44.6 °F 35.7 °F 44.6 °F 100% 29.44 in 4.3 mi South 24.2 mph - N/A Rain Light Rain
4:00 AM 45 °F - 44 °F 97% 29.46 in 4 mi South 24.6 mph - - Rain Rain
4:03 AM 44.6 °F 35.7 °F 44.6 °F 100% 29.44 in 3.7 mi South 24.2 mph - N/A   Overcast
4:07 AM 44.6 °F 35.7 °F 44.6 °F 100% 29.44 in 5.0 mi South 24.2 mph - N/A   Mostly Cloudy
4:12 AM 46.4 °F 38.1 °F 44.6 °F 93% 29.44 in 3.1 mi South 24.2 mph - N/A   Mostly Cloudy
4:16 AM 46.4 °F 38.3 °F 44.6 °F 93% 29.44 in 3.1 mi South 23.0 mph - N/A   Mostly Cloudy
4:25 AM 46.4 °F 38.3 °F 44.6 °F 93% 29.44 in - South 23.0 mph - N/A   Mostly Cloudy
4:29 AM 46.4 °F 38.5 °F 44.6 °F 93% 29.44 in 3.1 mi South 21.9 mph - N/A   Mostly Cloudy
4:38 AM 46.4 °F 38.5 °F 46.4 °F 100% 29.44 in 6.2 mi South 21.9 mph - N/A   Mostly Cloudy
4:42 AM 46.4 °F 38.3 °F 46.4 °F 100% 29.44 in 6.2 mi South 23.0 mph - N/A   Overcast
4:55 AM 48.2 °F - 46.4 °F 93% 29.44 in 3.7 mi South 21.9 mph - N/A   Drizzle
5:00 AM 48 °F - 47 °F 93% 29.44 in 8 mi South 20.1 mph - - Rain Light Drizzle
5:06 AM 48.2 °F - 46.4 °F 93% 29.44 in 6.2 mi South 21.9 mph - N/A   Overcast
5:25 AM 50.0 °F - 48.2 °F 94% 29.42 in 6.2 mi South 23.0 mph - N/A   Overcast
5:32 AM 50.0 °F - 48.2 °F 94% 29.42 in 4.3 mi South 24.2 mph - N/A   Overcast
5:44 AM 50.0 °F - 48.2 °F 94% 29.42 in - South 26.5 mph - N/A   Overcast
5:55 AM 50.0 °F - 48.2 °F 94% 29.42 in 3.1 mi South 24.2 mph - N/A Rain Light Rain
6:00 AM 50 °F - 49 °F 93% 29.43 in 6 mi South 24.6 mph - - Rain Light Rain Showers
6:06 AM 50.0 °F - 48.2 °F 94% 29.42 in 6.2 mi South 25.3 mph - N/A   Overcast
6:17 AM 51.8 °F - 50.0 °F 94% 29.42 in - South 26.5 mph 38.0 mph N/A   Mostly Cloudy
6:25 AM 51.8 °F - 50.0 °F 94% 29.42 in 4.3 mi SSW 29.9 mph 42.6 mph N/A   Overcast
6:36 AM 51.8 °F - 50.0 °F 94% 29.42 in 6.2 mi SSW 31.1 mph 43.7 mph N/A   Overcast
6:55 AM 51.8 °F - 50.0 °F 94% 29.42 in 6.2 mi SSW 29.9 mph - N/A   Mostly Cloudy
7:00 AM 52 °F - 50 °F 89% 29.42 in 17 mi SSW 31.3 mph - - Rain Rain
7:25 AM 51.8 °F - 50.0 °F 94% 29.42 in 3.7 mi SSW 31.1 mph 43.7 mph N/A   Overcast
7:27 AM 51.8 °F - 50.0 °F 94% 29.42 in 1.7 mi SSW 28.8 mph 42.6 mph N/A Rain Light Rain
7:41 AM 51.8 °F - 51.8 °F 100% 29.42 in - SSW 32.2 mph 43.7 mph N/A Rain Light Rain
7:55 AM 51.8 °F - 50.0 °F 94% 29.42 in 6.2 mi SSW 34.5 mph 46.0 mph N/A   Overcast
7:57 AM 51.8 °F - 50.0 °F 94% 29.42 in 6.2 mi SSW 34.5 mph 46.0 mph N/A   Mostly Cloudy
8:00 AM 52 °F - 51 °F 94% 29.44 in 3 mi SSW 33.6 mph - - Rain Heavy Rain
8:01 AM 51.8 °F - 50.0 °F 94% 29.42 in - SSW 33.4 mph 44.9 mph N/A Rain Light Rain
8:05 AM 51.8 °F - 50.0 °F 94% 29.42 in 2.5 mi SSW 33.4 mph 47.2 mph N/A Rain Heavy Rain Showers
8:19 AM 51.8 °F - 50.0 °F 94% 29.42 in 6.2 mi SSW 32.2 mph 44.9 mph N/A Rain Light Rain
8:25 AM 51.8 °F - 50.0 °F 94% 29.42 in 6.2 mi SSW 32.2 mph 44.9 mph N/A   Mostly Cloudy
8:43 AM 51.8 °F - 50.0 °F 94% 29.44 in 6.2 mi SSW 33.4 mph 44.9 mph N/A   Mostly Cloudy
8:55 AM 51.8 °F - 50.0 °F 94% 29.44 in 6.2 mi SSW 33.4 mph 44.9 mph N/A   Overcast
8:57 AM 51.8 °F - 50.0 °F 94% 29.44 in 6.2 mi SSW 33.4 mph 44.9 mph N/A   Overcast
9:00 AM 52 °F - 50 °F 89% 29.46 in 16 mi SSW 33.6 mph - - Rain Rain
9:17 AM 51.8 °F - 50.0 °F 94% 29.44 in 6.2 mi SSW 32.2 mph 43.7 mph N/A   Mostly Cloudy
9:25 AM 51.8 °F - 50.0 °F 94% 29.44 in 6.2 mi SSW 31.1 mph 44.9 mph N/A   Mostly Cloudy
9:36 AM 51.8 °F - 50.0 °F 94% 29.47 in 6.2 mi SSW 28.8 mph 40.3 mph N/A   Overcast
9:55 AM 51.8 °F - 50.0 °F 94% 29.47 in 6.2 mi SSW 27.6 mph 39.1 mph N/A   Overcast
9:57 AM 51.8 °F - 50.0 °F 94% 29.47 in 6.2 mi SSW 27.6 mph 39.1 mph N/A   Mostly Cloudy
10:00 AM 53 °F - 49 °F 83% 29.49 in 12 mi SSW 26.8 mph - -   Partly Cloudy
10:01 AM 53.6 °F - 50.0 °F 88% 29.47 in 6.2 mi SSW 27.6 mph 39.1 mph N/A   Overcast
10:17 AM 53.6 °F - 50.0 °F 88% 29.47 in 6.2 mi SSW 28.8 mph 41.4 mph N/A   Mostly Cloudy
10:25 AM 53.6 °F - 50.0 °F 88% 29.47 in 6.2 mi SSW 29.9 mph - N/A Rain Light Rain
10:55 AM 53.6 °F - 50.0 °F 88% 29.47 in 6.2 mi SSW 29.9 mph 41.4 mph N/A   Mostly Cloudy
11:00 AM 54 °F - 50 °F 82% 29.49 in 25 mi SSW 31.3 mph - - Rain Rain
11:25 AM 53.6 °F - 50.0 °F 88% 29.47 in 6.2 mi SSW 32.2 mph 43.7 mph N/A   Mostly Cloudy
11:55 AM 53.6 °F - 50.0 °F 88% 29.47 in 6.2 mi SSW 33.4 mph - N/A   Scattered Clouds
12:00 PM 54 °F - 49 °F 79% 29.48 in 19 mi SSW 31.3 mph - -   Partly Cloudy
12:25 PM 53.6 °F - 50.0 °F 88% 29.47 in 6.2 mi SSW 34.5 mph 46.0 mph N/A   Overcast
12:55 PM 53.6 °F - 50.0 °F 88% 29.47 in 6.2 mi SSW 29.9 mph - N/A   Mostly Cloudy
1:00 PM 54 °F - 50 °F 80% 29.48 in 19 mi SSW 31.3 mph - -   Partly Cloudy
1:25 PM 55.4 °F - 50.0 °F 82% 29.47 in 6.2 mi SSW 32.2 mph - N/A   Overcast
1:55 PM 55.4 °F - 48.2 °F 77% 29.47 in 6.2 mi SSW 35.7 mph - N/A   Scattered Clouds
2:25 PM 55.4 °F - 50.0 °F 82% 29.47 in 6.2 mi SSW 29.9 mph - N/A   Scattered Clouds
2:55 PM 55.4 °F - 50.0 °F 82% 29.44 in 6.2 mi SSW 29.9 mph - N/A   Mostly Cloudy
3:00 PM 55 °F - 49 °F 73% 29.47 in 22 mi SSW 29.1 mph - -   Partly Cloudy
3:13 PM 55.4 °F - 48.2 °F 77% 29.44 in 6.2 mi SSW 29.9 mph - N/A   Overcast
3:25 PM 55.4 °F - 48.2 °F 77% 29.44 in 6.2 mi SSW 29.9 mph - N/A   Mostly Cloudy
3:55 PM 53.6 °F - 50.0 °F 88% 29.47 in 3.7 mi SSW 32.2 mph - N/A Rain Light Rain
4:00 PM 54 °F - 49 °F 79% 29.47 in 19 mi SSW 26.8 mph - - Rain Rain
4:00 PM 53.6 °F - 50.0 °F 88% 29.47 in 6.2 mi SSW 27.6 mph 41.4 mph N/A   Mostly Cloudy
4:13 PM 53.6 °F - 50.0 °F 88% 29.47 in 6.2 mi SSW 28.8 mph - N/A   Mostly Cloudy
4:25 PM 53.6 °F - 50.0 °F 88% 29.47 in 6.2 mi SSW 29.9 mph 41.4 mph N/A   Mostly Cloudy
4:55 PM 51.8 °F - 48.2 °F 88% 29.47 in 6.2 mi SSW 24.2 mph - N/A   Partly Cloudy
5:00 PM 52 °F - 48 °F 80% 29.50 in 16 mi SSW 24.6 mph - -   Partly Cloudy
5:25 PM 51.8 °F - 46.4 °F 82% 29.47 in 6.2 mi SSW 23.0 mph - N/A   Mostly Cloudy
5:45 PM 51.8 °F - 46.4 °F 82% 29.47 in 6.2 mi SSW 21.9 mph - N/A   Mostly Cloudy
5:55 PM 50.0 °F - 46.4 °F 87% 29.47 in 6.2 mi SSW 23.0 mph - N/A   Overcast
6:00 PM 51 °F - 47 °F 80% 29.49 in 9 mi SSW 20.1 mph - -   Partly Cloudy
6:25 PM 51.8 °F - 46.4 °F 82% 29.47 in 6.2 mi SSW 21.9 mph - N/A   Overcast
6:55 PM 50.0 °F - 46.4 °F 87% 29.47 in 6.2 mi SSW 23.0 mph - N/A   Overcast
7:00 PM 51 °F - 46 °F 78% 29.48 in 11 mi SSW 22.4 mph - - Rain Rain
7:25 PM 50.0 °F - 46.4 °F 87% 29.47 in 6.2 mi SW 20.7 mph - N/A   Mostly Cloudy
7:55 PM 50.0 °F - 46.4 °F 87% 29.47 in 6.2 mi SSW 19.6 mph - N/A   Mostly Cloudy
8:00 PM 50 °F - 46 °F 80% 29.49 in 11 mi SSW 22.4 mph - -   Overcast
8:25 PM 50.0 °F - 44.6 °F 82% 29.47 in 6.2 mi SSW 21.9 mph - N/A   Overcast
8:55 PM 50.0 °F - 44.6 °F 82% 29.47 in 6.2 mi SSW 24.2 mph - N/A   Mostly Cloudy
9:00 PM 50 °F - 45 °F 78% 29.50 in 9 mi SSW 24.6 mph - -   Scattered Clouds
9:25 PM 50.0 °F - 46.4 °F 87% 29.47 in 6.2 mi SSW 26.5 mph - N/A Rain Light Rain
9:37 PM 50.0 °F - 44.6 °F 82% 29.47 in 6.2 mi SSW 26.5 mph 39.1 mph N/A   Mostly Cloudy
9:55 PM 50.0 °F - 44.6 °F 82% 29.47 in 6.2 mi SSW 28.8 mph - N/A   Mostly Cloudy
10:00 PM 49 °F - 45 °F 81% 29.51 in 9 mi SSW 29.1 mph - - Rain Rain
10:25 PM 48.2 °F - 44.6 °F 87% 29.50 in 6.2 mi SSW 24.2 mph - N/A   Mostly Cloudy
10:55 PM 48.2 °F - 42.8 °F 82% 29.50 in 6.2 mi SSW 24.2 mph - N/A   Unknown
11:00 PM 48 °F - 44 °F 80% 29.52 in 9 mi SSW 22.4 mph - -   Partly Cloudy
11:25 PM 48.2 °F - 44.6 °F 87% 29.50 in 6.2 mi SSW 23.0 mph - N/A   Unknown
11:55 PM 48.2 °F - 44.6 °F 87% 29.50 in 6.2 mi SSW 25.3 mph - N/A   Unknown